Accueil
METAR-TAF:

METAR-TAF

Aéroports :

Thomson-McDuffie County Airport

Thomson, Géorgie, États-Unis

latitude: 33-31-46N, longitude: 082-30-59W, altitude: 152 m

Observation

Le bulletin a été fait il y a 16 minutes, à 17:35 UTC
Vent 6 kt de ouest/sud-ouest
Température 33°C
Humidité 49%
Pression 1022 hPa
Visibilité: 16.1 km
Nuages épars à une hauteur de 4900 ft

METAR: KHQU 161735Z AUTO 25006KT 10SM SCT049 33/21 A3017 RMK AO2 T03320209

Heure: 13:51 (17:51 UTC)


TAF: absent

Observations et prévisions météorologiques de plus de 4000 aéroports (messages METAR et TAF).

Les stations disponibles sont représentées par des disques jaunes et rouges sur la carte.

Passer la souris dessus pour voir le nom de la station.

Cliquer dessus pour voir les observations et prévisions météorologiques.

Pour changer de carte: cliquez sur les boutons verts avec une croix noire pour zoomer, sur le bouton vert avec un tiret pour effectuer un zoom arrière, ou sur les flèches vertes pour les cartes adjacentes.


METAR-TAF: